Regional Weather Roundup
Issued by NWS

Home | Current Version | Previous Version | Text Only | Print | Product List | Glossary Off
Versions: 1 2 3 4 5 6 7 8 9 10 11 12 13 14 15 16 17 18 19 20 21 22 23 24 25 26 27 28 29 30 31 32 33 34 35 36 37 38 39 40 41 42 43 44 45 46 47 48 49 50

000
ASUS45 KBOU 300507
RWRCO

WEATHER ROUNDUP FOR COLORADO
NATIONAL WEATHER SERVICE DENVER/BOULDER CO
1100 PM MDT TUE JUL 29 2014

NOTE: "FAIR" INDICATES FEW OR NO CLOUDS BELOW 12000 FEET WITH NO
SIGNIFICANT WEATHER AND/OR OBSTRUCTIONS TO VISIBILITY.

COZ001>005-013-030-031-300600-
...NORTHWEST COLORADO...

CITY           SKY/WX    TMP DP  RH WIND       PRES   REMARKS
CRAIG          CLOUDY    54  54 100 CALM      30.29S
HAYDEN         CLOUDY    55  54  94 E6        30.30F
MEEKER         CLOUDY    57  54  89 E3        30.30S
MOUNT WERNER   NOT AVBL
STEAMBOAT SPGS CLOUDY    56  54  93 E3        30.32F
WALDEN         CLOUDY    54  50  87 NW5       30.38S
$$

COZ006>008-011-300600-
...WEST CENTRAL VALLEYS...

CITY           SKY/WX    TMP DP  RH WIND       PRES   REMARKS
GRAND JUNCTION CLOUDY    62  59  90 N3        30.21F
MONTROSE       CLOUDY    62  57  83 E8        30.31R
EAGLE          CLOUDY    61  55  82 SW12      30.33R
RIFLE          CLOUDY    60  56  86 E5        30.27F
DELTA          CLOUDY    65  60  84 CALM      30.26S
NUCLA          CLOUDY    63  59  88 SE6       30.31S
$$

COZ017>023-064>068-300600-
...SOUTHWEST COLORADO...

CITY           SKY/WX    TMP DP  RH WIND       PRES   REMARKS
DURANGO        MOCLDY    63  49  60 S5        30.27S
CORTEZ         CLEAR     62  55  77 S7        30.25R
PAGOSA SPRINGS PTCLDY    59  50  72 CALM      30.35F THUNDER
TELLURIDE      CLOUDY    52  50  93 CALM      30.47S
WOLF CREEK PAS NOT AVBL
$$

COZ009-010-012-014-032>034-037-058>063-300600-
...CENTRAL COLORADO...

CITY           SKY/WX    TMP DP  RH WIND       PRES   REMARKS
ASPEN          LGT RAIN  54  52  93 N5        30.41R
BUENA VISTA    CLOUDY    61  47  61 N6        30.35S
COPPER MTN     MOCLDY    46  41  81 W15G21    30.63R
BERTHOUD PASS  HAZE      37  28  70 NW9       30.66F VSB 1/4
COTTONWOOD PAS CLOUDY    57  43  58 W16G25    30.48S
GUNNISON       CLOUDY    55  48  76 W6        30.42R
KREMMLING      RAIN      55  52  88 W5        30.37R
LEADVILLE      CLOUDY    49  46  90 E3        30.48F
MONARCH PASS   LGT RAIN  43  41  93 SW15      30.73S VSB<1/4
SALIDA         CLOUDY    62  53  71 SE9       30.40R
SUNLIGHT       CLOUDY    46  46 100 CALM      30.57F
WILKERSON PASS FOG       45  45 100 NE9G17    30.59F VSB 1/2
$$

COZ069>075-300600-
...SAN LUIS VALLEY/SANGRE DE CRISTO MOUNTAINS...

CITY           SKY/WX    TMP DP  RH WIND       PRES   REMARKS
ALAMOSA        CLOUDY    57  53  86 CALM      30.34F
LA VETA PASS   CLOUDY    46  45  93 SW6       30.52S
SAGUACHE       CLOUDY    55  54  94 CALM      30.38R
$$

COZ035-036-038>040-300600-
...NORTHERN COLORADO FRONT RANGE...

CITY           SKY/WX    TMP DP  RH WIND       PRES   REMARKS
DENVER INTL AP RAIN      59  58  96 CALM      30.27F FOG
DMNS CITY PARK   N/A     59  58  95 E3        30.26S
AURORA         LGT RAIN  59  59 100 N6        30.28F
FRONT RANGE AP HVY RAIN  61  59  94 NE5       30.29S
ERIE MUNI ARPT HVY RAIN  62  59  92 NE9G21    30.27R
BOULDER MUN AP LGT RAIN  61  61 100 N13       30.27S
CENTENNIAL     CLOUDY    59  56  89 NE5       30.28F
BROOMFIELD     NOT AVBL
FORT COLLINS   CLOUDY    61  57  88 N7        30.29S
LONGMONT       CLOUDY    64  59  83 N13       30.29R
$$

COZ041-046-047-076>085-087-088-300600-
...PIKES PEAK/PALMER DIVIDE AND SOUTHERN FOOTHILLS...

CITY           SKY/WX    TMP DP  RH WIND       PRES   REMARKS
COLO. SPRINGS  CLOUDY    59  56  89 NE5       30.29F
A. F. ACADEMY  CLOUDY    58  58  99 CALM      30.30F
ELLICOTT       CLOUDY    59  57  93 NE8       30.26R
FALCON         DRIZZLE   56  55  97 NE5       30.33R
FORT CARSON    CLOUDY    59  59  98 E3        30.26F
LIMON          LGT RAIN  60  56  86 NE3       30.25F
MONUMENT HILL  CLOUDY    54  52  94 W6        30.33S
TRINIDAD       MOCLDY    63  60  90 NW13      30.23R
$$

COZ042>045-048>051-090-091-300600-
...NORTHEAST COLORADO...

CITY           SKY/WX    TMP DP  RH WIND       PRES   REMARKS
GREELEY ARPT   NOT AVBL
AKRON          LGT RAIN  60  58  92 E10       30.25F
BURLINGTON     HVY RAIN  62  59  90 N13       30.21R FOG
WRAY             N/A    N/A N/A N/A W5        30.20F
STERLING       LGT RAIN  64  64 100 N3        30.23F
HOLYOKE        LGT RAIN  64  61  88 SE3       30.23S
FORT MORGAN    CLOUDY    60  59  94 NE10      30.26S
$$

COZ086-089-092>099-300600-
...SOUTHEAST COLORADO...

CITY           SKY/WX    TMP DP  RH WIND       PRES   REMARKS
PUEBLO         CLOUDY    63  61  93 N3        30.20R
LA JUNTA       LGT RAIN  66  64  93 NE15      30.12S
LAMAR          LGT RAIN  65  63  93 E10       30.10S
SPRINGFIELD    NOT AVBL
$$


USA.gov is the U.S. government's official web portal to all federal, state and local government web resources and services.